Location: Winnipeg
(49.8830°N, 97.1670°W)
Time: 21:16:22
(UTC-06:00)

Envisat - Pass Details

Date: 02 December 2022
Orbit: 763 x 765 km, 98.2° (Epoch: 28 January)

Event Time Altitude Azimuth Distance (km) Brightness Sun altitude
Rises 05:36:26 0° 9° (N) 3,246 6.3 -23.2°
Reaches altitude 10° 05:38:50 10° 3° (N) 2,315 5.4 -22.8°
Enters shadow 05:41:54 32° 337° (NNW) 1,309 3.9 -22.3°
